Voltar ao catálogo

THOR ABLESTAR DEB

AtivoLEO
NORAD 148·DEBRIS·🇺🇸 United States

Lançado Jun 29, 1961 de Cape Canaveral Space Force Station

Loading…

Próximas Passagens (próximas 24 horas)

TLE

AtualizadoSource: Space-Track

Época: Sep 13, 2026, 23:13 UTC

1 00148U 61015AJ  26256.96744413  .00000544  00000-0  31617-3 0  9999
2 00148  65.7688 240.5219 0152069 276.0614  82.3157 14.10965329771503

Acompanhe THOR ABLESTAR DEB em tempo real com AllMySat

Download on the App Store